Current weather by "City, St" or "zip code"  
 
Advertise Here

Current Conditions: Dansville, Dansville Municipal Airport, NY

Fair


61.0 F

Last Updated on Sep 16 2021, 10:54 pm EDT
Humidity: 90%
Wind Speed: N 0.0 mph
Barometer 30.23 in
Dewpoint: 57.9 F
Visibility: 10.00 mi
Precip: --
Heat Index: NA
Wind Chill: NA
Current conditions at:

Dansville, Dansville Municipal Airport, NY (KDSV)

Lat: 42.56944 Lon: 77.71444

Local Radar Image active severe weather and emergency alerts image image weather storm and storm spotter reports image weather observation monitoring service image
Local
Radar
Active
Alerts
Storm Reports Obs
Monitoring

Sign-up For Email & Text Message Weather Alert Notification Services



Advertise Here

Observation History for Dansville, Dansville Municipal Airport, NY


Time Wind
(mph)
Vis
(mi)
Weather Precip (in) Temperature (F) Relative
Humidity
Wind
Chill
(F)
Heat
Index
(F)
Pressure
Air Dwpt altimeter
(in)
sea level
(mb)
Rmks
10:54 pm EDT N 0.0 10.00 Fair -- 61.0 57.9 90% NA NA 30.23 1024.4
9:54 pm EDT S 3.5 10.00 Fair -- 61.0 57.9 90% NA NA 30.23 1024.6
8:54 pm EDT N 0.0 10.00 Fair -- 65.0 59.0 81% NA NA 30.23 1024.4
7:54 pm EDT S 8.1 10.00 A Few Clouds -- 68.0 59.0 73% NA NA 30.22 1023.9
6:54 pm EDT S 4.6 10.00 Partly Cloudy -- 71.0 59.0 66% NA NA 30.21 1023.7
5:54 pm EDT E 6.9 10.00 Partly Cloudy -- 73.0 57.9 59% NA NA 30.20 1023.4
4:54 pm EDT E 4.6 10.00 A Few Clouds -- 75.0 55.9 52% NA NA 30.20 1023.4
3:54 pm EDT S 5.8 10.00 Fair -- 72.0 57.0 59% NA NA 30.21 1023.6
2:54 pm EDT E 5.8 10.00 Fair -- 74.0 55.0 52% NA NA 30.22 1024.0
1:54 pm EDT SE 9.2 10.00 Mostly Cloudy -- 73.0 57.9 59% NA NA 30.23 1024.3
12:54 pm EDT SE 8.1 10.00 A Few Clouds -- 72.0 60.1 66% NA NA 30.23 1024.5
11:54 am EDT N 0.0 10.00 A Few Clouds -- 70.0 59.0 68% NA NA 30.25 1024.9
10:54 am EDT SE 4.6 10.00 Fair -- 68.0 60.1 76% NA NA 30.25 1025.0
9:54 am EDT N 0.0 10.00 A Few Clouds -- 61.0 57.9 90% NA NA 30.25 1025.2
8:54 am EDT SE 3.5 10.00 Overcast -- 58.0 55.9 93% NA NA 30.26 1025.4
7:54 am EDT N 0.0 9.00 Overcast -- 56.0 55.0 97% NA NA 30.24 1024.9
6:54 am EDT SE 5.8 9.00 Overcast -- 56.0 54.0 93% 55 NA 30.23 1024.4
5:54 am EDT E 4.6 10.00 Overcast -- 55.0 53.1 93% 54 NA 30.20 1023.5
4:54 am EDT E 4.6 10.00 Overcast -- 56.0 54.0 93% 55 NA 30.18 1022.8
3:54 am EDT E 3.5 8.00 Overcast -- 57.0 55.9 96% NA NA 30.17 1022.4
2:54 am EDT SE 4.6 5.00 Fog/Mist -- 58.0 57.0 97% 58 NA 30.16 1022.0
1:54 am EDT S 4.6 6.00 Fog/Mist -- 59.0 57.9 96% 59 NA 30.15 1021.7
12:54 am EDT S 3.5 1.75 Fog/Mist -- 59.0 57.9 96% NA NA 30.14 1021.5
11:54 pm EDT N 0.0 10.00 Mostly Cloudy -- 60.0 57.9 93% NA NA 30.13 1021.0

Regional Weather Observation


Wellsville, Wellsville Municipal Airport, NY (KELZ)

Fair
60.0 F

Genesee County Airport, NY (KGVQ)

Fair
60.0 F

Buffalo, Greater Buffalo International Airport, NY (KBUF)

Fair
63.0 F

Penn Yan, Penn Yan Airport, NY (KPEO)

Fair
61.0 F

Rochester, Greater Rochester International Airport, NY (KROC)

Fair
63.0 F

Cattaraugus County-Olean Airport, NY (KOLE)

Fair
59.0 F
Advertise Here


Advertise Here